[[{"header":{"parameterUnit":"m.s-1","parameterCategory":1,"la1":30.2991,"la2":30.254,"lo1":-89.0895,"lo2":-89.0444,"dy":0.0017,"dx":0.0017,"nx":28,"ny":28,"refTime":"2024-03-15T03:00:00:Z","depth":0,"parameterNumber":2,"parameterNumberName":"U-component_of_WINDS"},"data":[0,0,0,0,0,0,0,0,0,0,0,0,0,0,0,0,0,0,0,0,0,0,0,0,0,0,0,0,0,0,0,0,0,0,0,0,0,0,0,0,0,0,0,0,0,0,0,0,0,0,0,0,0,0,0,0,0,0,-2.6738,-2.6739,0,-2.6814,-2.6815,-2.6815,-2.6808,-2.6807,-2.6806,-2.6805,-2.6882,-2.6885,-2.6888,0,0,0,0,0,0,0,0,0,0,0,0,0,-2.6588,-2.6591,-2.6738,-2.6739,-2.674,-2.6814,-2.6815,-2.6816,-2.6808,-2.6807,-2.6805,-2.6804,-2.6881,-2.6884,-2.6888,0,0,0,0,0,0,0,0,0,0,0,0,0,-2.6657,-2.6592,-2.6738,-2.6745,-2.6747,-2.6813,-2.6815,-2.6816,-2.6809,-2.6807,-2.6805,-2.6803,-2.6879,-2.6884,-2.6889,-2.6953,0,0,-2.6903,-2.6905,0,0,0,0,0,0,0,0,-2.6653,-2.6663,-2.6743,-2.6745,-2.6747,-2.68,-2.679,-2.6862,-2.6809,-2.6785,-2.6805,-2.6803,-2.6856,-2.6862,-2.688,-2.6957,-2.696,-2.6904,-2.6906,-2.6908,-2.691,0,0,0,0,0,0,0,-2.6649,-2.666,-2.6768,-2.6744,-2.6747,-2.6745,-2.6753,-2.6804,-2.6829,-2.6787,-2.6787,-2.6796,-2.6856,-2.6876,-2.6882,-2.6961,-2.6903,-2.6908,-2.6911,-2.6912,-2.7094,-2.7095,0,0,0,0,0,0,-2.6642,-2.6656,-2.6766,-2.677,-2.6695,-2.6749,-2.6758,-2.6784,-2.6829,-2.6834,-2.6797,-2.6795,-2.6869,-2.6877,-2.6885,-2.6962,-2.6908,-2.6913,-2.6916,-2.7092,-2.7094,-2.7096,0,0,0,0,0,0,-2.6639,-2.6652,-2.6763,-2.6713,-2.6727,-2.6753,-2.6783,-2.6787,-2.6806,-2.6836,-2.6841,-2.6812,-2.6868,-2.6878,-2.6936,-2.6965,-2.6915,-2.6919,-2.7089,-2.7092,-2.7095,-2.7118,0,0,0,0,0,0,-2.6635,-2.6651,-2.6675,-2.6714,-2.673,-2.6812,-2.6785,-2.679,-2.6814,-2.6812,-2.6852,-2.6857,-2.6867,-2.6929,-2.6941,-2.697,-2.6923,-2.7087,-2.7091,-2.7094,-2.7115,-2.7121,-2.7127,0,0,0,0,0,-2.6629,-2.6679,-2.6677,-2.669,-2.6761,-2.6814,-2.6823,-2.6834,-2.6817,-2.6842,-2.6861,-2.6855,-2.696,-2.6935,-2.6948,-2.698,-2.7085,-2.709,-2.7094,-2.7112,-2.712,-2.7127,0,0,0,0,0,0,-2.6643,-2.6684,-2.6682,-2.6745,-2.6776,-2.6813,-2.6844,-2.6843,-2.6879,-2.6876,-2.6888,-2.6897,-2.6955,-2.6973,-2.6945,-2.7044,-2.702,-2.7028,-2.7029,-2.7037,-2.7043,-2.7037,-2.6927,0,0,0,0,0,-2.6654,-2.6694,-2.6727,-2.678,-2.6796,-2.6818,-2.6841,-2.6847,-2.688,-2.6893,-2.6916,-2.6948,-2.6988,-2.7014,-2.7053,-2.7118,-2.7126,-2.7146,-2.7152,-2.7157,-2.7163,-2.7198,-2.7207,-2.7111,-2.7111,-2.7111,0,0,-2.6676,-2.6703,-2.6727,-2.6783,-2.6808,-2.6849,-2.6828,-2.6873,-2.6903,-2.6899,-2.6955,-2.6974,-2.701,-2.7072,-2.71,-2.7089,-2.7192,-2.7163,-2.7167,-2.717,-2.7204,-2.7213,-2.7221,-2.7114,-2.7113,-2.7113,0,0,-2.6736,-2.6761,-2.6807,-2.6833,-2.687,-2.6885,-2.6896,-2.6933,-2.6945,-2.7002,-2.7,-2.7036,-2.7105,-2.7131,-2.7153,-2.7224,-2.722,-2.7237,-2.7268,-2.7302,-2.731,-2.7317,-2.7341,-2.7349,-2.7243,-2.7243,-2.7243,0,-2.6758,-2.6819,-2.6831,-2.6876,-2.69,-2.69,-2.6946,-2.6971,-2.7019,-2.7036,-2.7023,-2.711,-2.7134,-2.7201,-2.7219,-2.7237,-2.725,-2.7231,-2.7308,-2.7315,-2.7321,-2.7344,-2.7354,-2.7244,-2.7244,-2.7244,-2.7244,0,-2.6844,-2.6887,-2.692,-2.6967,-2.6995,-2.7041,-2.706,-2.7087,-2.7091,-2.7107,-2.7164,-2.7194,-2.7238,-2.7255,-2.726,-2.7323,-2.7315,-2.7305,-2.7281,-2.7332,-2.7354,-2.7363,-2.7247,-2.7246,-2.7246,-2.7245,0,0,-2.6914,-2.6967,-2.6979,-2.7,-2.7042,-2.7075,-2.7121,-2.7164,-2.7187,-2.7221,-2.7259,-2.7318,-2.7309,-2.7335,-2.7342,-2.7373,-2.7426,-2.7359,-2.736,-2.7369,-2.7497,-2.7502,-2.7512,-2.7424,-2.7426,-2.7427,-2.7493,0,-2.6977,-2.7057,-2.707,-2.714,-2.7179,-2.718,-2.722,-2.725,-2.7266,-2.7302,-2.7321,-2.7362,-2.7348,-2.7363,-2.7393,-2.7413,-2.7451,-2.7409,-2.7459,-2.746,-2.7447,-2.7524,-2.753,-2.7591,-2.7502,-2.7503,-2.7504,0,-2.7061,-2.7097,-2.7171,-2.7208,-2.7225,-2.726,-2.7301,-2.7336,-2.737,-2.738,-2.7409,-2.7413,-2.746,-2.7436,-2.7501,-2.7471,-2.7493,-2.7506,-2.7509,-2.7512,-2.7484,-2.7528,-2.761,-2.7618,-2.7518,-2.7517,-2.7516,0,-2.7101,-2.7169,-2.7222,-2.724,-2.7285,-2.731,-2.7329,-2.7362,-2.7388,-2.7424,-2.744,-2.7482,-2.7504,-2.7536,-2.7551,-2.7532,-2.7615,-2.7592,-2.7624,-2.7623,-2.7639,-2.7637,-2.7724,-2.7657,-2.7656,-2.7656,-2.7656,0,-2.7169,-2.7214,-2.7241,-2.7273,-2.7324,-2.7339,-2.7388,-2.7408,-2.7437,-2.7473,-2.7477,-2.7511,-2.753,-2.7567,-2.7579,-2.7631,-2.7641,-2.765,-2.7652,-2.7648,-2.7647,-2.7661,-2.7657,-2.7659,-2.7658,-2.7658,-2.7657,0,-2.7223,-2.7242,-2.73,-2.7338,-2.7348,-2.7384,-2.7416,-2.7448,-2.7465,-2.7511,-2.7522,-2.7549,-2.7592,-2.7611,-2.7665,-2.7673,-2.7732,-2.7732,-2.772,-2.772,-2.775,-2.7746,-2.7847,-2.7861,-2.7786,-2.7786,-2.7787,0,-2.7263,-2.7298,-2.734,-2.7364,-2.7385,-2.7424,-2.745,-2.7467,-2.7493,-2.7536,-2.7562,-2.7606,-2.7641,-2.7711,-2.7735,-2.7776,-2.7776,-2.7809,-2.7783,-2.7777,-2.7775,-2.7772,-2.7775,-2.7813,-2.7814,-2.7815,-2.7815,0,-2.7333,-2.7342,-2.7379,-2.742,-2.7451,-2.7484,-2.7516,-2.7536,-2.7557,-2.7587,-2.7632,-2.7659,-2.7715,-2.7758,-2.78,-2.7821,-2.7821,-2.7824,-2.7833,-2.7828,-2.7819,-2.7822,-2.7731,-2.7821,-2.782,-2.782,-2.7819,-2.7819,-2.7381,-2.7411,-2.7445,-2.7487,-2.7513,-2.7543,-2.7574,-2.7595,-2.7633,-2.7678,-2.7686,-2.7734,-2.7768,-2.7825,-2.7848,-2.7885,-2.7877,-2.7891,-2.7894,-2.7896,-2.7897,-2.7815,-2.7893,-2.7893,-2.7893,-2.7893,-2.7893,0,-2.7449,-2.7471,-2.751,-2.7554,-2.7587,-2.7586,-2.7622,-2.7649,-2.769,-2.7722,-2.7757,-2.7808,-2.7851,-2.7878,-2.7921,-2.7945,-2.7947,-2.7956,-2.7953,-2.7958,-2.7903,-2.789,-2.7954,-2.7954,-2.7954,-2.7954,-2.7954,-2.7954,-2.7489,-2.754,-2.7552,-2.7617,-2.7639,-2.7685,-2.7706,-2.7733,-2.7759,-2.7816,-2.7851,-2.7869,-2.7899,-2.7944,-2.7983,-2.799,-2.8005,-2.8014,-2.802,-2.7968,-2.7962,-2.7955,-2.7943,-2.8018,-2.8018,-2.8072,-2.8072,-2.8073]},{"header":{"parameterUnit":"m.s-1","parameterCategory":1,"la1":30.2991,"la2":30.254,"lo1":-89.0895,"lo2":-89.0444,"dy":0.0017,"dx":0.0017,"nx":28,"ny":28,"refTime":"2024-03-15T03:00:00:Z","depth":0,"parameterNumber":3,"parameterNumberName":"V-component_of_WINDS"},"data":[0,0,0,0,0,0,0,0,0,0,0,0,0,0,0,0,0,0,0,0,0,0,0,0,0,0,0,0,0,0,0,0,0,0,0,0,0,0,0,0,0,0,0,0,0,0,0,0,0,0,0,0,0,0,0,0,0,0,2.5116,2.5117,0,2.5191,2.5192,2.5193,2.5209,2.5209,2.5208,2.5208,2.5282,2.5285,2.5287,0,0,0,0,0,0,0,0,0,0,0,0,0,2.4986,2.4989,2.5116,2.5117,2.5118,2.5191,2.5192,2.5193,2.5209,2.5209,2.5208,2.5207,2.5282,2.5285,2.5288,0,0,0,0,0,0,0,0,0,0,0,0,0,2.505,2.4989,2.5116,2.5135,2.5137,2.5191,2.5192,2.5194,2.5209,2.5209,2.5208,2.5207,2.5281,2.5284,2.5288,2.5328,0,0,2.53,2.5301,0,0,0,0,0,0,0,0,2.5047,2.5055,2.5131,2.5134,2.5137,2.519,2.5174,2.5239,2.521,2.5182,2.5208,2.5207,2.5252,2.5258,2.5274,2.5331,2.5334,2.53,2.5302,2.5304,2.5305,0,0,0,0,0,0,0,2.5042,2.5052,2.5146,2.5132,2.5136,2.514,2.5148,2.5186,2.5221,2.5184,2.5186,2.5194,2.5254,2.5271,2.5276,2.5335,2.53,2.5303,2.5305,2.5307,2.5431,2.5432,0,0,0,0,0,0,2.5035,2.5048,2.5144,2.5148,2.5089,2.5143,2.5152,2.5174,2.522,2.5227,2.5195,2.5195,2.5264,2.5272,2.5279,2.533,2.5304,2.5307,2.5309,2.543,2.5431,2.5432,0,0,0,0,0,0,2.5032,2.5043,2.5141,2.5099,2.5111,2.5146,2.517,2.5176,2.5193,2.5229,2.5235,2.5206,2.5264,2.5273,2.5316,2.5333,2.5309,2.5312,2.5429,2.543,2.5432,2.5432,0,0,0,0,0,0,2.5028,2.5042,2.5057,2.5099,2.5114,2.5177,2.5171,2.5178,2.5199,2.52,2.5241,2.5246,2.5264,2.531,2.532,2.5338,2.5315,2.5428,2.543,2.5431,2.5431,2.5434,2.5436,0,0,0,0,0,2.5023,2.5053,2.5058,2.5069,2.5134,2.5178,2.5186,2.5207,2.5201,2.5217,2.524,2.5245,2.5329,2.5315,2.5325,2.5345,2.5427,2.5429,2.5431,2.543,2.5433,2.5436,0,0,0,0,0,0,2.5012,2.5059,2.5065,2.5109,2.514,2.518,2.5201,2.5209,2.5241,2.524,2.5263,2.5272,2.5314,2.5333,2.5316,2.5387,2.5378,2.5382,2.5373,2.5376,2.5379,2.5374,2.5318,0,0,0,0,0,2.5015,2.5047,2.5086,2.5122,2.5137,2.5166,2.5186,2.52,2.5232,2.5244,2.5271,2.5301,2.5335,2.5356,2.5389,2.5433,2.5443,2.5452,2.5454,2.5456,2.546,2.5488,2.5492,2.544,2.544,2.544,0,0,2.5021,2.505,2.5069,2.5121,2.5146,2.5179,2.5177,2.5212,2.5237,2.5249,2.5292,2.5312,2.5348,2.5392,2.5413,2.541,2.5477,2.5459,2.546,2.5464,2.549,2.5495,2.55,2.5442,2.5442,2.5441,0,0,2.5049,2.5074,2.5108,2.5133,2.5172,2.5191,2.5199,2.524,2.5254,2.5297,2.5308,2.5338,2.5394,2.542,2.5441,2.548,2.5487,2.549,2.5504,2.553,2.5534,2.5538,2.5554,2.5559,2.5494,2.5494,2.5494,0,2.5052,2.5103,2.5124,2.5159,2.5182,2.5196,2.523,2.5254,2.53,2.5316,2.5311,2.5384,2.5409,2.5461,2.5471,2.5486,2.5497,2.5486,2.5532,2.5536,2.554,2.5555,2.5561,2.5494,2.5494,2.5494,2.5494,0,2.5105,2.514,2.5163,2.5209,2.5234,2.5268,2.5295,2.5318,2.5329,2.5349,2.5394,2.5424,2.5465,2.5477,2.5488,2.5531,2.5528,2.5527,2.5519,2.5545,2.556,2.5566,2.5494,2.5494,2.5494,2.5494,0,0,2.5129,2.5187,2.5196,2.5218,2.5261,2.5289,2.5324,2.5365,2.5385,2.5416,2.5448,2.5496,2.5496,2.5519,2.5533,2.5555,2.5588,2.5552,2.5553,2.556,2.564,2.5641,2.5648,2.5592,2.5593,2.5594,2.5637,0,2.5164,2.5229,2.525,2.5304,2.5338,2.5352,2.5383,2.5413,2.5433,2.5464,2.5486,2.5521,2.5517,2.5532,2.5555,2.5579,2.5604,2.5576,2.5622,2.5623,2.5615,2.5656,2.5657,2.5697,2.5643,2.5644,2.5645,0,2.5214,2.5249,2.5307,2.5348,2.5363,2.5391,2.543,2.546,2.5495,2.5508,2.5534,2.5546,2.5584,2.5573,2.5627,2.5607,2.5627,2.5641,2.5643,2.565,2.5637,2.5665,2.571,2.5717,2.5654,2.5653,2.5653,0,2.5229,2.5289,2.5332,2.535,2.5399,2.5419,2.544,2.5474,2.5497,2.5531,2.5547,2.5585,2.5606,2.5634,2.5657,2.5646,2.5709,2.5699,2.5722,2.5721,2.5736,2.5735,2.5786,2.5745,2.5745,2.5745,2.5745,0,2.5267,2.5303,2.534,2.5366,2.5407,2.543,2.5469,2.5491,2.5522,2.5553,2.5566,2.5595,2.5622,2.5655,2.5672,2.5715,2.5723,2.5736,2.574,2.5736,2.5735,2.5751,2.5749,2.5746,2.5746,2.5746,2.5746,0,2.5291,2.5317,2.5365,2.5408,2.5419,2.5448,2.5484,2.5511,2.5531,2.5571,2.5582,2.5614,2.5654,2.5678,2.5727,2.5739,2.5787,2.5789,2.5776,2.5778,2.5801,2.5799,2.5866,2.5877,2.5826,2.5827,2.5827,0,2.5315,2.5343,2.5389,2.5411,2.5433,2.5469,2.5493,2.5517,2.5542,2.5585,2.5607,2.5647,2.5681,2.5744,2.5772,2.581,2.5815,2.5835,2.5821,2.5816,2.5818,2.5817,2.5821,2.5838,2.5839,2.5839,2.5839,0,2.5355,2.5367,2.5402,2.5443,2.5472,2.5504,2.5537,2.5554,2.5584,2.5611,2.5652,2.5679,2.573,2.5771,2.5812,2.5834,2.5842,2.5844,2.5852,2.5848,2.584,2.5847,2.5785,2.5843,2.5842,2.5842,2.5842,2.5842,2.5381,2.5408,2.5445,2.5484,2.5511,2.5542,2.557,2.5595,2.563,2.5674,2.5686,2.573,2.5765,2.5821,2.5844,2.5878,2.5876,2.5886,2.5889,2.5892,2.5894,2.5833,2.5886,2.5885,2.5885,2.5885,2.5885,0,2.5425,2.545,2.5485,2.5531,2.5563,2.5568,2.5604,2.563,2.5669,2.5701,2.5735,2.5783,2.5823,2.5854,2.5895,2.5917,2.5922,2.5927,2.5927,2.5932,2.5893,2.5883,2.5922,2.5922,2.5922,2.5922,2.5922,2.5922,2.5451,2.5497,2.5513,2.5573,2.5597,2.5641,2.5662,2.569,2.5717,2.577,2.5804,2.5824,2.5857,2.5901,2.5938,2.5946,2.5961,2.5966,2.5975,2.5938,2.5934,2.5931,2.5922,2.5969,2.5969,2.6012,2.6012,2.6012]}]]